| time (UTC) | temp F | wind direction | speed knots | gust knots | rain 1hr in | rain 24hr in | rain mn in | humidity % | barometer mb |
| 20260906003648 | 61 | 301 | 0.0 | 0.0 | 0.03 | 0.16 | 0.16 | 95 | 1013.4 |
| 20260906002145 | 62 | 301 | 0.0 | 0.0 | 0.09 | 0.15 | 0.15 | 94 | 1013.2 |
| 20260906000644 | 62 | 301 | 0.0 | 0.0 | 0.12 | 0.14 | 0.14 | 94 | 1013.3 |
| 20260905235144 | 62 | 301 | 0.0 | 0.0 | 0.12 | 0.15 | 0.14 | 94 | 1013.0 |
| 20260905233644 | 62 | 300 | 0.0 | 0.0 | 0.11 | 0.14 | 0.13 | 93 | 1012.7 |
| 20260905232142 | 63 | 313 | 0.0 | 0.0 | 0.04 | 0.07 | 0.07 | 92 | 1012.6 |
| 20260905230643 | 64 | 319 | 0.0 | 0.0 | 0.00 | 0.03 | 0.02 | 92 | 1012.1 |
| 20260905225142 | 64 | 319 | 0.0 | 0.0 | 0.00 | 0.03 | 0.02 | 92 | 1012.1 |
| 20260905223641 | 64 | 319 | 0.0 | 0.0 | 0.00 | 0.03 | 0.02 | 91 | 1012.1 |
| 20260905222140 | 65 | 319 | 0.0 | 0.0 | 0.01 | 0.03 | 0.02 | 91 | 1012.0 |
| 20260905221334 | 65 | 319 | 0.0 | 0.0 | 0.01 | 0.03 | 0.02 | 89 | 1011.8 |
| 20260905215140 | 66 | 319 | 0.0 | 0.0 | 0.01 | 0.03 | 0.02 | 87 | 1011.6 |
| 20260905213640 | 68 | 319 | 0.0 | 0.0 | 0.01 | 0.03 | 0.02 | 83 | 1011.5 |
| 20260905212139 | 69 | 321 | 0.0 | 0.0 | 0.00 | 0.02 | 0.01 | 77 | 1011.3 |
| 20260905210641 | 70 | 10 | 0.0 | 0.0 | 0.00 | 0.02 | 0.01 | 75 | 1011.0 |
| 20260905205138 | 70 | 309 | 0.0 | 0.0 | 0.00 | 0.02 | 0.01 | 76 | 1010.8 |
| 20260905203637 | 70 | 27 | 0.0 | 0.0 | 0.00 | 0.02 | 0.01 | 76 | 1010.8 |
| 20260905202137 | 69 | 28 | 0.0 | 0.0 | 0.00 | 0.02 | 0.01 | 75 | 1010.8 |
| 20260905200636 | 69 | 28 | 0.0 | 0.0 | 0.00 | 0.02 | 0.01 | 79 | 1010.8 |
| 20260905195137 | 69 | 9 | 0.0 | 0.0 | 0.00 | 0.02 | 0.01 | 75 | 1010.8 |
| 20260905193633 | 70 | 291 | 0.0 | 0.0 | 0.00 | 0.02 | 0.01 | 76 | 1010.8 |
| 20260905192133 | 70 | 306 | 0.0 | 0.0 | 0.00 | 0.02 | 0.01 | 76 | 1010.8 |
| 20260905190635 | 70 | 302 | 0.0 | 0.9 | 0.00 | 0.02 | 0.01 | 69 | 1010.9 |
| 20260905185131 | 71 | 26 | 0.0 | 5.2 | 0.00 | 0.02 | 0.01 | 67 | 1010.7 |
| 20260905184337 | 70 | 290 | 0.0 | 4.3 | 0.00 | 0.02 | 0.01 | 68 | 1010.7 |
| 20260905182132 | 71 | 297 | 0.0 | 0.0 | 0.00 | 0.02 | 0.01 | 70 | 1010.8 |
| 20260905180630 | 73 | 285 | 0.0 | 0.0 | 0.00 | 0.02 | 0.01 | 66 | 1010.7 |
| 20260905175129 | 74 | 47 | 0.0 | 0.9 | 0.00 | 0.02 | 0.01 | 68 | 1010.9 |
| 20260905173629 | 71 | 311 | 0.0 | 2.6 | 0.00 | 0.02 | 0.01 | 70 | 1010.8 |
| 20260905172131 | 70 | 355 | 0.0 | 2.6 | 0.00 | 0.02 | 0.01 | 72 | 1010.9 |
| 20260905170631 | 70 | 308 | 0.9 | 7.8 | 0.00 | 0.02 | 0.01 | 71 | 1010.9 |
| 20260905165826 | 69 | 306 | 0.0 | 2.6 | 0.00 | 0.02 | 0.01 | 70 | 1011.0 |
| 20260905164320 | 70 | 306 | 0.0 | 2.6 | 0.00 | 0.02 | 0.01 | 69 | 1011.2 |
| 20260905162126 | 71 | 327 | 0.0 | 2.6 | 0.00 | 0.02 | 0.01 | 73 | 1011.1 |
| 20260905161316 | 71 | 304 | 0.0 | 0.9 | 0.00 | 0.02 | 0.01 | 70 | 1011.2 |
| 20260905155125 | 71 | 287 | 0.0 | 3.5 | 0.01 | 0.02 | 0.01 | 70 | 1011.2 |
| 20260905153623 | 70 | 313 | 0.0 | 3.5 | 0.01 | 0.02 | 0.01 | 70 | 1011.4 |
| 20260905152824 | 71 | 5 | 0.0 | 0.0 | 0.01 | 0.02 | 0.01 | 73 | 1011.2 |
| 20260905150623 | 70 | 319 | 0.0 | 0.9 | 0.01 | 0.02 | 0.01 | 77 | 1011.1 |
| 20260905145120 | 71 | 311 | 0.0 | 0.9 | 0.00 | 0.01 | 0.00 | 75 | 1011.0 |
| 20260905143620 | 69 | 46 | 0.0 | 4.3 | 0.00 | 0.01 | 0.00 | 77 | 1011.1 |
| 20260905142118 | 67 | 347 | 0.0 | 0.0 | 0.00 | 0.01 | 0.00 | 83 | 1011.2 |
| 20260905140619 | 67 | 300 | 0.0 | 4.3 | 0.00 | 0.01 | 0.00 | 82 | 1011.1 |
| 20260905135116 | 66 | 237 | 0.0 | 2.6 | 0.00 | 0.01 | 0.00 | 91 | 1011.1 |
| 20260905133616 | 63 | 287 | 0.0 | 4.3 | 0.00 | 0.01 | 0.00 | 95 | 1010.8 |
| 20260905132118 | 61 | 321 | 0.0 | 0.0 | 0.00 | 0.01 | 0.00 | 99 | 1010.8 |
| 20260905130616 | 61 | 311 | 0.0 | 0.0 | 0.00 | 0.01 | 0.00 | 99 | 1010.8 |
| 20260905125116 | 60 | 330 | 0.0 | 0.0 | 0.00 | 0.01 | 0.00 | 99 | 1010.8 |
| 20260905123616 | 58 | 330 | 0.0 | 0.0 | 0.00 | 0.01 | 0.00 | 99 | 1011.1 |
| 20260905122118 | 58 | 330 | 0.0 | 0.0 | 0.00 | 0.01 | 0.00 | 99 | 1011.0 |
| 20260905120614 | 57 | 330 | 0.0 | 0.0 | 0.00 | 0.01 | 0.00 | 99 | 1010.9 |
| 20260905115113 | 56 | 330 | 0.0 | 0.0 | 0.00 | 0.01 | 0.00 | 99 | 1010.8 |
| 20260905114258 | 55 | 330 | 0.0 | 0.0 | 0.00 | 0.01 | 0.00 | 99 | 1010.7 |
| 20260905112106 | 54 | 330 | 0.0 | 0.0 | 0.00 | 0.01 | 0.00 | 99 | 1010.6 |
| 20260905110605 | 53 | 330 | 0.0 | 0.0 | 0.00 | 0.01 | 0.00 | 98 | 1010.6 |
| 20260905105104 | 52 | 330 | 0.0 | 0.0 | 0.00 | 0.01 | 0.00 | 97 | 1010.5 |
| 20260905103603 | 52 | 330 | 0.0 | 0.0 | 0.00 | 0.01 | 0.00 | 97 | 1010.2 |
| 20260905102103 | 53 | 330 | 0.0 | 0.0 | 0.00 | 0.01 | 0.00 | 97 | 1010.0 |
| 20260905101857 | 53 | 330 | 0.0 | 0.0 | 0.00 | 0.01 | 0.00 | 97 | 1009.6 |
| 20260905101724 | 54 | 330 | 0.0 | 0.0 | 0.00 | 0.01 | 0.00 | 96 | 1009.8 |
| 20260905101549 | 54 | 330 | 0.0 | 0.0 | 0.00 | 0.01 | 0.00 | 96 | 1009.6 |
| 20260905101541 | 54 | 330 | 0.0 | 0.0 | 0.00 | 0.01 | 0.00 | 96 | 1009.6 |
| 20260905101533 | 55 | 330 | 0.0 | 0.0 | 0.00 | 0.01 | 0.00 | 96 | 1009.6 |
| 20260905101528 | 53 | 330 | 0.0 | 0.0 | 0.00 | 0.01 | 0.00 | 97 | 1009.8 |
| 20260905101337 | 53 | 330 | 0.0 | 0.0 | 0.00 | 0.01 | 0.00 | 97 | 1009.8 |
| 20260905101327 | 53 | 330 | 0.0 | 0.0 | 0.00 | 0.01 | 0.00 | 97 | 1009.7 |
| 20260905101317 | 53 | 330 | 0.0 | 0.0 | 0.00 | 0.01 | 0.00 | 97 | 1009.7 |
| 20260905101309 | 53 | 330 | 0.0 | 0.0 | 0.00 | 0.01 | 0.00 | 97 | 1009.9 |
| 20260905101138 | 54 | 330 | 0.0 | 0.0 | 0.00 | 0.01 | 0.00 | 97 | 1009.8 |
| 20260905070548 | 55 | 330 | 0.0 | 0.0 | 0.00 | 0.01 | 0.00 | 96 | 1009.7 |
| 20260905065044 | 55 | 330 | 0.0 | 0.0 | 0.00 | 0.01 | 0.00 | 96 | 1010.0 |
| 20260905063544 | 56 | 330 | 0.0 | 0.0 | 0.00 | 0.01 | 0.00 | 96 | 1009.9 |
| 20260905062040 | 56 | 330 | 0.0 | 0.0 | 0.00 | 0.01 | 0.00 | 96 | 1010.0 |
| 20260905060539 | 56 | 330 | 0.0 | 0.0 | 0.00 | 0.01 | 0.00 | 96 | 1009.9 |
| 20260905055740 | 57 | 330 | 0.0 | 0.0 | 0.00 | 0.01 | 0.00 | 96 | 1009.9 |
| 20260905055004 | 57 | 330 | 0.0 | 0.0 | 0.00 | 0.01 | 0.00 | 96 | 1009.9 |
| 20260905052035 | 57 | 330 | 0.0 | 0.0 | 0.00 | 0.01 | 0.00 | 95 | 1009.9 |
| 20260905051235 | 58 | 330 | 0.0 | 0.0 | 0.00 | 0.01 | 0.00 | 96 | 1010.0 |
| 20260905045034 | 58 | 330 | 0.0 | 0.0 | 0.00 | 0.01 | 0.00 | 96 | 1010.3 |
| 20260905043536 | 58 | 330 | 0.0 | 0.0 | 0.00 | 0.01 | 0.00 | 96 | 1010.5 |
| 20260905042035 | 58 | 330 | 0.0 | 0.0 | 0.00 | 0.01 | 0.00 | 95 | 1010.5 |
| 20260905040535 | 59 | 330 | 0.0 | 0.0 | 0.00 | 0.01 | 0.00 | 95 | 1010.6 |
| 20260905035034 | 59 | 330 | 0.0 | 0.0 | 0.00 | 0.01 | 0.01 | 95 | 1010.4 |
| 20260905033528 | 59 | 330 | 0.0 | 0.0 | 0.00 | 0.01 | 0.01 | 94 | 1010.3 |
| 20260905032027 | 60 | 330 | 0.0 | 0.0 | 0.00 | 0.01 | 0.01 | 94 | 1010.4 |
| 20260905030526 | 60 | 330 | 0.0 | 0.0 | 0.00 | 0.01 | 0.01 | 94 | 1010.4 |
| 20260905025027 | 61 | 330 | 0.0 | 0.0 | 0.00 | 0.01 | 0.01 | 94 | 1010.5 |
| 20260905023528 | 61 | 330 | 0.0 | 0.0 | 0.00 | 0.01 | 0.01 | 94 | 1010.6 |
| 20260905022029 | 62 | 330 | 0.0 | 0.0 | 0.00 | 0.01 | 0.01 | 94 | 1010.7 |
| 20260905020528 | 62 | 330 | 0.0 | 0.0 | 0.00 | 0.01 | 0.01 | 94 | 1010.9 |
| 20260905015028 | 62 | 330 | 0.0 | 0.0 | 0.00 | 0.01 | 0.01 | 93 | 1010.9 |
| 20260905013528 | 63 | 330 | 0.0 | 0.0 | 0.00 | 0.01 | 0.01 | 93 | 1011.0 |
| 20260905012722 | 63 | 330 | 0.0 | 0.0 | 0.00 | 0.01 | 0.01 | 93 | 1011.0 |
| 20260905010527 | 63 | 330 | 0.0 | 0.0 | 0.00 | 0.01 | 0.01 | 92 | 1010.8 |
| 20260905010415 | 64 | 330 | 0.0 | 0.0 | 0.01 | 0.01 | 0.01 | 91 | 1010.8 |